Home > Weather > Swansea > Past weeks

Flag for United Kingdom Past Weather in Swansea, Wales, United Kingdom — Yesterday and Last 2 Weeks

Now
51 °F

Cool.


Feels Like: 48 °F
Forecast: 46 / 64 °F
Wind: 8 mph from Northeast

Location: Mumbles

Current Time: May 26, 2016 at 1:54:40 AM

Latest Report: May 26, 2016 at 1:00 AM


Visibility: N/A

Pressure: 30.05 "Hg

Humidity: 77%

Dew Point: 44 °F

Location of SwanseaLocation

Past Weather in Swansea — Graph

°F

Swansea Temperature Yesterday

Maximum temperature yesterday: 56 °F (at 4:00 PM)
Minimum temperature yesterday: 49 °F (at 6:00 AM)
Average temperature yesterday: 52 °F

High & Low Weather Summary for the Past Weeks

 TemperatureHumidityPressure
High67 °F (May 12, 9:00 PM)100% (May 11, 9:00 AM)30.26 "Hg (May 11, 9:00 AM)
Low45 °F (May 15, 5:00 AM)50% (May 23, 5:00 PM)29.61 "Hg (May 11, 8:00 PM)
Average54 °F83%29.94 "Hg
* Reported May 11 12:00 AM — May 26 12:00 AM, Swansea, Weather by CustomWeather, © 2016

Note: Actual official high and low records may vary slightly from our data, if they occured in-between our weather recording intervals... More about our weather records

Advertising

Swansea Weather History for the Previous 24 Hours

Scroll right to see more
 ConditionsComfort  
Time TempWeatherWind HumidityBarometerVisibility
12:00 AM
Thu, May 26
52 °FCool.10 mph75%30.06 "HgN/A
11:00 PM
Wed, May 25
53 °FCool.9 mph74%30.06 "HgN/A
10:00 PM53 °FCool.12 mph72%30.06 "HgN/A
9:00 PM53 °FCool.7 mph69%30.06 "HgN/A
8:00 PM54 °FCool.2 mph67%30.05 "HgN/A
7:00 PM54 °FCool.7 mph66%30.05 "HgN/A
6:00 PM54 °FCool.8 mph63%30.06 "HgN/A
5:00 PM56 °FRefreshingly cool.3 mph58%30.06 "HgN/A
4:00 PM56 °FRefreshingly cool.3 mph58%30.07 "HgN/A
3:00 PM54 °FCool.6 mph57%30.08 "HgN/A
2:00 PM56 °FCool.6 mph61%30.08 "HgN/A
1:00 PM54 °FCool.6 mph60%30.09 "HgN/A
12:00 PM52 °FCool.13 mph62%30.10 "HgN/A
11:00 AM50 °FCool.14 mph63%30.11 "HgN/A
10:00 AM50 °FCool.16 mph64%30.12 "HgN/A
9:00 AM51 °FCool.17 mph63%30.12 "HgN/A
8:00 AM50 °FCool.13 mph72%30.13 "HgN/A
7:00 AM50 °FCool.13 mph73%30.12 "HgN/A
6:00 AM49 °FCool.13 mph75%30.12 "HgN/A
5:00 AM49 °FCool.14 mph75%30.12 "HgN/A
4:00 AM50 °FCool.16 mph82%30.11 "HgN/A
3:00 AM51 °FCool.13 mph80%30.12 "HgN/A
2:00 AM52 °FCool.15 mph77%30.13 "HgN/A
1:00 AM53 °FCool.12 mph77%30.13 "HgN/A
Weather by CustomWeather, © 2016

See weather overviewHow to use our weather pages